TimeCDT,TemperatureF,Dew PointF,Humidity,Sea Level PressureIn,VisibilityMPH,Wind Direction,Wind SpeedMPH,Gust SpeedMPH,PrecipitationIn,Events,Conditions,WindDirDegrees,DateUTC
12:15 AM,75.2,69.8,83,30.12,10.0,SSE,13.8,19.6,N/A,,Overcast,160,2012-10-12 05:15:00
12:35 AM,75.2,69.8,83,30.12,10.0,SSE,11.5,18.4,N/A,,Overcast,150,2012-10-12 05:35:00
12:55 AM,75.2,69.8,83,30.12,10.0,SSE,12.7,18.4,N/A,,Overcast,160,2012-10-12 05:55:00
1:15 AM,75.2,69.8,83,30.11,10.0,SSE,12.7,-,N/A,,Mostly Cloudy,160,2012-10-12 06:15:00
1:35 AM,73.4,68.0,83,30.11,10.0,SSE,11.5,-,N/A,,Partly Cloudy,160,2012-10-12 06:35:00
1:55 AM,73.4,68.0,83,30.11,10.0,SSE,11.5,-,N/A,,Clear,150,2012-10-12 06:55:00
2:15 AM,73.4,68.0,83,30.12,10.0,SSE,15.0,-,N/A,,Partly Cloudy,160,2012-10-12 07:15:00
2:35 AM,73.4,68.0,83,30.11,10.0,SSE,12.7,16.1,N/A,,Scattered Clouds,150,2012-10-12 07:35:00
3:15 AM,71.6,68.0,88,30.11,10.0,SSE,13.8,19.6,N/A,,Mostly Cloudy,150,2012-10-12 08:15:00
3:35 AM,71.6,68.0,88,30.12,10.0,SSE,10.4,-,N/A,,Scattered Clouds,150,2012-10-12 08:35:00
3:55 AM,71.6,66.2,83,30.12,10.0,SSE,9.2,-,N/A,,Scattered Clouds,150,2012-10-12 08:55:00
4:15 AM,71.6,66.2,83,30.12,10.0,SSE,8.1,-,N/A,,Mostly Cloudy,160,2012-10-12 09:15:00
4:35 AM,69.8,66.2,88,30.12,10.0,SSE,6.9,-,N/A,,Overcast,150,2012-10-12 09:35:00
4:55 AM,69.8,66.2,88,30.12,10.0,SSE,8.1,-,N/A,,Overcast,150,2012-10-12 09:55:00
5:15 AM,68.0,66.2,94,30.12,10.0,SSE,8.1,-,N/A,,Overcast,150,2012-10-12 10:15:00
5:35 AM,68.0,66.2,94,30.13,10.0,SE,6.9,-,N/A,,Scattered Clouds,140,2012-10-12 10:35:00
5:55 AM,68.0,66.2,94,30.14,10.0,SSE,9.2,-,N/A,,Clear,150,2012-10-12 10:55:00
6:15 AM,68.0,66.2,94,30.14,10.0,SSE,8.1,-,N/A,,Mostly Cloudy,150,2012-10-12 11:15:00
6:35 AM,69.8,66.2,88,30.15,10.0,SSE,6.9,-,N/A,,Overcast,150,2012-10-12 11:35:00
6:55 AM,69.8,66.2,88,30.15,10.0,SSE,9.2,-,N/A,,Overcast,150,2012-10-12 11:55:00
7:15 AM,69.8,66.2,88,30.15,10.0,SSE,8.1,-,N/A,,Overcast,150,2012-10-12 12:15:00
7:35 AM,69.8,66.2,88,30.15,10.0,SE,9.2,-,N/A,,Overcast,130,2012-10-12 12:35:00
7:55 AM,69.8,66.2,88,30.15,10.0,SE,8.1,-,N/A,,Overcast,140,2012-10-12 12:55:00
8:15 AM,69.8,66.2,88,30.16,10.0,SSE,6.9,-,N/A,,Overcast,150,2012-10-12 13:15:00
8:35 AM,69.8,66.2,88,30.17,10.0,SE,9.2,-,N/A,,Overcast,140,2012-10-12 13:35:00
8:55 AM,71.6,66.2,83,30.17,10.0,SSE,9.2,16.1,N/A,,Overcast,160,2012-10-12 13:55:00
9:15 AM,73.4,66.2,78,30.18,10.0,SSE,10.4,-,N/A,,Overcast,160,2012-10-12 14:15:00
9:55 AM,73.4,66.2,78,30.19,10.0,South,9.2,-,N/A,,Mostly Cloudy,170,2012-10-12 14:55:00
10:15 AM,75.2,66.2,73,30.18,10.0,SSE,11.5,-,N/A,,Scattered Clouds,160,2012-10-12 15:15:00
10:35 AM,77.0,64.4,65,30.18,10.0,South,13.8,19.6,N/A,,Partly Cloudy,180,2012-10-12 15:35:00
11:15 AM,78.8,64.4,61,30.18,10.0,SSE,13.8,23.0,N/A,,Scattered Clouds,160,2012-10-12 16:15:00
11:35 AM,80.6,64.4,58,30.17,10.0,South,13.8,20.7,N/A,,Mostly Cloudy,180,2012-10-12 16:35:00
11:55 AM,80.6,64.4,58,30.17,10.0,South,13.8,21.9,N/A,,Mostly Cloudy,180,2012-10-12 16:55:00
12:15 PM,80.6,64.4,58,30.16,10.0,South,16.1,-,N/A,,Mostly Cloudy,180,2012-10-12 17:15:00
12:35 PM,82.4,64.4,54,30.16,10.0,South,15.0,20.7,N/A,,Mostly Cloudy,170,2012-10-12 17:35:00
12:55 PM,82.4,64.4,54,30.15,10.0,South,16.1,23.0,N/A,,Mostly Cloudy,170,2012-10-12 17:55:00
1:35 PM,82.4,64.4,54,30.13,10.0,SSE,13.8,20.7,N/A,,Overcast,160,2012-10-12 18:35:00
2:35 PM,84.2,62.6,48,30.09,10.0,South,18.4,-,N/A,,Partly Cloudy,180,2012-10-12 19:35:00
3:15 PM,86.0,62.6,45,30.09,10.0,South,13.8,19.6,N/A,,Mostly Cloudy,180,2012-10-12 20:15:00
3:55 PM,86.0,62.6,45,30.07,10.0,South,15.0,31.1,N/A,,Mostly Cloudy,170,2012-10-12 20:55:00
4:15 PM,86.0,62.6,45,30.08,10.0,SE,12.7,18.4,N/A,,Scattered Clouds,140,2012-10-12 21:15:00
4:35 PM,84.2,62.6,48,30.07,10.0,SE,12.7,-,N/A,,Mostly Cloudy,140,2012-10-12 21:35:00
4:55 PM,86.0,62.6,45,30.07,10.0,SE,13.8,-,N/A,,Mostly Cloudy,140,2012-10-12 21:55:00
5:15 PM,84.2,62.6,48,30.06,10.0,SE,15.0,23.0,N/A,,Scattered Clouds,130,2012-10-12 22:15:00
5:35 PM,84.2,62.6,48,30.06,10.0,SE,15.0,25.3,N/A,,Clear,140,2012-10-12 22:35:00
6:15 PM,82.4,62.6,51,30.06,10.0,SE,18.4,24.2,N/A,,Clear,140,2012-10-12 23:15:00
6:55 PM,80.6,62.6,54,30.07,10.0,SE,12.7,-,N/A,,Clear,140,2012-10-12 23:55:00
7:15 PM,80.6,62.6,54,30.07,10.0,SSE,13.8,18.4,N/A,,Clear,150,2012-10-13 00:15:00
7:35 PM,78.8,62.6,57,30.07,10.0,North,-9999.0,-,N/A,,Partly Cloudy,0,2012-10-13 00:35:00
7:55 PM,78.8,62.6,57,30.06,10.0,North,-9999.0,-,N/A,,Partly Cloudy,0,2012-10-13 00:55:00
8:15 PM,77.0,60.8,57,30.07,10.0,SE,11.5,-,N/A,,Partly Cloudy,140,2012-10-13 01:15:00
8:35 PM,77.0,60.8,57,30.07,10.0,SE,9.2,-,N/A,,Partly Cloudy,140,2012-10-13 01:35:00
8:55 PM,77.0,62.6,61,30.07,10.0,SE,10.4,-,N/A,,Scattered Clouds,130,2012-10-13 01:55:00
9:15 PM,75.2,62.6,65,30.07,10.0,SE,10.4,-,N/A,,Scattered Clouds,130,2012-10-13 02:15:00
9:35 PM,75.2,62.6,65,30.07,10.0,SE,11.5,-,N/A,,Partly Cloudy,130,2012-10-13 02:35:00
9:55 PM,75.2,62.6,65,30.07,10.0,SE,12.7,-,N/A,,Partly Cloudy,140,2012-10-13 02:55:00
10:15 PM,75.2,62.6,65,30.09,10.0,SE,11.5,19.6,N/A,,Scattered Clouds,140,2012-10-13 03:15:00
11:35 PM,75.2,64.4,69,30.08,10.0,SE,11.5,19.6,N/A,,Mostly Cloudy,140,2012-10-13 04:35:00
11:55 PM,75.2,64.4,69,30.09,10.0,SSE,10.4,-,N/A,,Mostly Cloudy,150,2012-10-13 04:55:00